Location: G�kdere
(37.0328°N, 30.9000°E)
Time: 21:36:15
(UTC+00:00)

CZ-4 R/B - Pass Details

Date: 03 March 2021
Orbit: 532 x 597 km, 97.7° (Epoch: 19 April)

Event Time Altitude Azimuth Distance (km) Brightness Sun altitude
Rises 16:23:34 0° 158° (SSE) 2,661 4.6 -7.0°
Reaches altitude 10° 16:25:40 10° 155° (SSE) 1,777 3.7 -7.4°
Maximum altitude 16:29:26 59° 75° (ENE) 623 1.3 -8.2°
Drops below altitude 10° 16:33:16 10° 356° (N) 1,808 4.0 -8.9°
Sets 16:35:26 0° 353° (N) 2,712 4.9 -9.4°
